Weather History for Fairbanks Ft. Wainwright, AK

Change the Weather History Date:

Thursday, June 27, 2013

  Actual Average Record
Temperature  
Mean Temperature 73 °F -  
Max Temperature 82 °F 71 °F 89 °F (2004)
Min Temperature 64 °F 54 °F 46 °F (2014)
Cooling Degree Days 8    
Growing Degree Days 23 (Base 50)    
Moisture  
Dew Point 58 °F    
Average Humidity 63    
Maximum Humidity 94    
Minimum Humidity 39    
Precipitation  
Precipitation 0.00 in - - ()
Sea Level Pressure  
Sea Level Pressure 29.86 in    
Wind  
Wind Speed 5 mph (WSW)    
Max Wind Speed 15 mph    
Max Gust Speed 22 mph    
Visibility 5 miles    
Events Rain    
Averages and records for this station are not official NWS values.
T = Trace of Precipitation, MM = Missing Value Source: NWS Daily Summary

Daily Weather History Graph

Daily Weather History Graph

Search for Another Location

Airport:

Trip Planner

Search our weather history database for the weather conditions in past years. The results will help you decide how hot, cold, wet, or windy it might be!

Date:

Astronomy

Jun. 27, 2013 Rise Set
Actual Time 3:03 AM AKDT 12:42 AM AKDT
Civil Twilight Sun does not rise Sun does not rise
Nautical Twilight Sun does not rise Sun does not rise
Astronomical Twilight Sun does not rise Sun does not rise
Moon 12:29 AM AKDT (6/27) 11:08 AM AKDT (6/27)
Length of Visible Light 24h 00m
Length of Day
21h 39m
Waning Gibbous, 75% of the Moon is Illuminated
Jun 27
Waning Gibbous
Jun 29
Last Quarter
Jul 7
New
Jul 15
First Quarter
Jul 22
Full

Hourly Weather History & Observations

Time (AKDT) Temp. Heat Index Dew Point Humidity Pressure Visibility Wind Dir Wind Speed Gust Speed Precip Events Conditions
12:56 AM 77.0 °F - 53.1 °F 43% 29.70 in 10.0 mi Calm Calm - N/A   Clear
1:56 AM 69.1 °F - 55.0 °F 61% 29.71 in 10.0 mi NE 3.5 mph - N/A   Clear
2:56 AM 68.0 °F - 54.0 °F 61% 29.73 in 10.0 mi NE 4.6 mph - N/A   Clear
3:56 AM 66.0 °F - 53.1 °F 63% 29.76 in 10.0 mi East 4.6 mph - N/A   Clear
4:56 AM 66.9 °F - 54.0 °F 63% 29.78 in 10.0 mi WNW 3.5 mph - N/A   Mostly Cloudy
5:56 AM 66.9 °F - 54.0 °F 63% 29.80 in 10.0 mi South 3.5 mph - N/A   Overcast
6:17 AM 68.0 °F - 55.4 °F 64% 29.81 in 6.0 mi South 8.1 mph - N/A   Smoke
6:28 AM 66.2 °F - 55.4 °F 68% 29.82 in 3.0 mi Calm Calm - N/A Rain Light Rain Showers
6:37 AM 66.2 °F - 59.0 °F 78% 29.83 in 2.0 mi SSW 4.6 mph - N/A Rain Light Rain
6:51 AM 68.0 °F - 60.8 °F 78% 29.83 in 1.2 mi SW 5.8 mph - N/A Rain Light Rain
6:57 AM 68.0 °F - 60.8 °F 78% 29.83 in 1.2 mi SW 5.8 mph - N/A Rain Light Rain
7:03 AM 66.2 °F - 60.8 °F 83% 29.84 in 1.0 mi SW 5.8 mph - N/A Rain Light Rain
7:14 AM 68.0 °F - 60.8 °F 78% 29.84 in 1.0 mi WSW 5.8 mph - N/A   Smoke
7:20 AM 66.2 °F - 60.8 °F 83% 29.84 in 0.8 mi West 4.6 mph - N/A Rain Light Rain
7:41 AM 66.2 °F - 60.8 °F 83% 29.84 in 0.8 mi Calm Calm - N/A Rain Light Rain
7:57 AM 66.2 °F - 60.8 °F 83% 29.85 in 1.0 mi Calm Calm - N/A Rain Light Rain
8:12 AM 64.4 °F - 62.6 °F 94% 29.85 in 0.8 mi Calm Calm - N/A Rain Light Rain
8:30 AM 66.2 °F - 62.6 °F 88% 29.86 in 0.8 mi SSW 4.6 mph - N/A   Smoke
8:55 AM 66.2 °F - 60.8 °F 83% 29.86 in 0.8 mi WSW 5.8 mph - N/A   Smoke
9:00 AM 68.0 °F - 60.8 °F 78% 29.86 in 1.0 mi SW 5.8 mph - N/A   Smoke
9:55 AM 68.0 °F - 60.8 °F 78% 29.87 in 1.2 mi SSW 5.8 mph - N/A   Smoke
10:25 AM 69.8 °F - 60.8 °F 73% 29.88 in 1.2 mi SW 5.8 mph - N/A Rain Light Rain Showers
10:36 AM 69.8 °F - 60.8 °F 73% 29.88 in 1.5 mi WSW 8.1 mph - N/A   Smoke
10:55 AM 71.6 °F - 60.8 °F 69% 29.88 in 1.5 mi West 6.9 mph - N/A   Smoke
11:34 AM 73.4 °F - 57.2 °F 57% 29.88 in 2.5 mi West 9.2 mph - N/A   Smoke
11:55 AM 75.2 °F - 57.2 °F 53% 29.88 in 2.5 mi West 6.9 mph - N/A   Smoke
12:03 PM 75.2 °F - 57.2 °F 53% 29.88 in 3.0 mi West 8.1 mph 17.3 mph N/A   Smoke
12:55 PM 77.0 °F - 57.2 °F 50% 29.89 in 3.0 mi West 10.4 mph - N/A   Smoke
1:55 PM 80.6 °F 80.5 °F 55.4 °F 42% 29.89 in 4.0 mi WNW 15.0 mph - N/A   Smoke
2:55 PM 80.6 °F 80.8 °F 57.2 °F 45% 29.90 in 6.0 mi West 11.5 mph 19.6 mph N/A   Smoke
3:55 PM 82.4 °F 81.7 °F 55.4 °F 39% 29.89 in 7.0 mi West 13.8 mph 18.4 mph N/A   Scattered Clouds
4:55 PM 82.4 °F 81.7 °F 55.4 °F 39% 29.90 in 7.0 mi West 12.7 mph - N/A   Mostly Cloudy
5:55 PM 80.6 °F 80.3 °F 53.6 °F 39% 29.91 in 6.0 mi West 12.7 mph 21.9 mph N/A   Smoke
6:55 PM 80.6 °F 80.8 °F 57.2 °F 45% 29.91 in 7.0 mi West 15.0 mph - N/A   Mostly Cloudy
7:55 PM 80.6 °F 80.5 °F 55.4 °F 42% 29.91 in 13.0 mi West 15.0 mph - N/A   Mostly Cloudy
8:55 PM 78.8 °F - 57.2 °F 47% 29.93 in 13.0 mi SW 9.2 mph 17.3 mph N/A   Mostly Cloudy
9:55 PM 77.0 °F - 55.4 °F 47% 29.94 in 13.0 mi West 9.2 mph - N/A   Mostly Cloudy
10:56 PM 75.9 °F - 54.0 °F 46% 29.95 in 10.0 mi West 12.7 mph - N/A   Overcast
11:56 PM 73.9 °F - 51.1 °F 45% 29.97 in 10.0 mi West 12.7 mph - N/A   Overcast